Location: College Rock
(37.2713°N, 119.1740°W)
Time: 04:07:03
(UTC+00:00)

Cosmos 44 Rocket - Pass Details

Date: 29 October 2020
Orbit: 642 x 748 km, 65.1° (Epoch: 23 November)

Event Time Altitude Azimuth Distance (km) Brightness Sun altitude
Exits shadow 12:10:28 40° 183° (S) 1,088 4.2 -26.0°
Drops below altitude 10° 12:13:53 10° 164° (SSE) 2,255 6.1 -25.4°
Sets 12:16:17 0° 161° (SSE) 3,172 6.9 -24.9°
